DateTimeUTC,F1_A11,F1_S11,BsB_S11,BsG_S11,BsR_S11,BbsB_S11,BbsG_S11,BbsR_S11,BaB_A11,BaG_A11,BaR_A11,Tu_S11,T_S11,Uu_S11,U_S11,P_S11,T1_A11
2021-06-08T09:00:00Z,00000200,20000000,,,,,,,-000.03,-000.10,-000.15,16.0,23.1,02.0,01.3,0670.0,30.9
2021-06-08T09:01:00Z,00000200,20000000,,,,,,,-000.04,0000.12,0000.26,16.0,23.1,02.0,01.3,0670.0,30.9
2021-06-08T09:02:00Z,00000200,20000000,,,,,,,0000.35,-000.10,-000.03,16.0,23.1,02.0,01.3,0670.0,30.9
2021-06-08T09:03:00Z,00000200,60000000,,,,,,,0000.33,0000.33,0000.06,16.0,23.1,02.0,01.3,0670.0,30.9
2021-06-08T09:04:00Z,00000200,40000000,0000.17,0000.36,0000.18,0000.25,0000.06,0000.07,0000.34,0000.54,0000.80,16.2,22.9,02.3,01.5,0670.9,30.9
2021-06-08T09:05:00Z,00000200,00000000,0000.36,0000.35,0000.17,-000.40,0000.03,-000.17,0000.12,0000.08,-000.15,16.2,22.9,02.5,01.7,0671.0,30.9
2021-06-08T09:06:00Z,00000200,00000000,0000.60,0000.28,-000.03,-000.19,-000.04,-000.04,0000.36,0000.84,0000.52,16.3,22.9,02.7,01.8,0671.0,30.9
2021-06-08T09:07:00Z,00000200,00000000,0000.19,0000.09,0000.17,0000.10,-000.04,-000.22,0000.03,-000.23,-000.08,16.3,22.9,02.7,01.8,0671.0,30.9
2021-06-08T09:08:00Z,00000200,00000000,0000.67,0000.07,0000.05,-000.10,0000.02,0000.13,0000.19,0000.39,0000.11,16.3,22.9,02.8,01.9,0671.0,30.9
2021-06-08T09:09:00Z,00000200,00000000,0000.29,0000.06,0000.04,-000.05,0000.04,0000.25,0000.05,-000.28,0000.10,16.3,22.9,02.8,01.9,0671.0,30.9
2021-06-08T09:10:00Z,00000200,00000000,0000.06,0000.17,-000.05,0000.13,-000.21,0000.04,0000.53,0000.43,0000.16,16.3,22.9,02.8,01.9,0671.0,30.9
2021-06-08T09:11:00Z,00000200,00000000,0000.12,0000.42,0000.00,0000.21,-000.20,0000.22,0000.27,0000.09,0000.33,16.3,22.9,02.9,01.9,0671.0,30.9
2021-06-08T09:12:00Z,00000200,00000000,0000.41,-000.01,-000.18,0000.16,-000.10,-000.25,-000.33,0000.10,-000.48,16.3,22.9,02.9,01.9,0671.0,30.9
2021-06-08T09:13:00Z,00000200,00000000,-000.21,0000.63,0000.30,-000.00,-000.11,0000.10,-000.13,-000.21,0000.13,16.3,22.9,03.0,02.0,0671.0,30.9
2021-06-08T09:14:00Z,00000200,00000000,0000.24,0000.26,-000.02,0000.31,-000.07,0000.24,0000.19,0000.17,-000.03,16.3,22.9,02.8,01.9,0671.0,30.9
2021-06-08T09:15:00Z,00000200,00000000,0000.20,0000.44,0000.21,0000.53,0000.14,-000.04,-000.18,-000.20,0000.18,16.3,22.9,02.8,01.9,0671.0,30.9
2021-06-08T09:16:00Z,00000200,00000000,0000.07,0000.00,-000.18,0000.45,-000.10,-000.02,0000.44,0000.28,-000.01,16.4,22.9,02.9,01.9,0671.0,30.9
2021-06-08T09:17:00Z,00000200,00000000,-000.42,0000.04,0000.07,-000.06,-000.14,-000.22,0000.01,0000.22,-000.05,16.4,22.9,02.9,01.9,0671.0,30.9
2021-06-08T09:18:00Z,00000200,00000000,0000.45,0000.38,-000.15,0000.20,-000.23,0000.04,0000.36,0000.45,0000.53,16.4,22.9,02.8,01.9,0671.0,30.9
2021-06-08T09:19:00Z,00000200,00000000,0000.16,0000.16,-000.09,0000.16,-000.14,-000.00,-000.32,-000.14,-000.21,16.4,22.9,02.9,01.9,0671.0,30.9
2021-06-08T09:20:00Z,00000200,00000000,0000.19,0000.02,0000.02,0000.03,-000.02,0000.22,0000.52,-000.02,0000.18,16.4,22.9,02.9,01.9,0671.1,30.9
2021-06-08T09:21:00Z,00000200,00000000,0000.25,0000.28,-000.23,0000.23,-000.07,-000.19,0000.09,0000.23,0000.10,16.4,22.9,03.0,02.0,0671.1,30.9
2021-06-08T09:22:00Z,00000200,00000000,0000.35,0000.50,0000.24,0000.10,-000.26,0000.35,-000.46,-000.12,-000.08,16.4,22.9,02.9,02.0,0671.0,30.9
2021-06-08T09:23:00Z,00000200,00000000,-000.22,0000.15,-000.03,0000.44,-000.01,-000.14,0000.21,0000.21,0000.33,16.4,22.9,03.0,02.0,0671.0,30.9
2021-06-08T09:24:00Z,00000200,00000000,0000.48,0000.31,-000.02,-000.11,-000.05,0000.09,0000.22,-000.24,-000.26,16.4,22.9,03.1,02.1,0671.0,30.9
2021-06-08T09:25:00Z,00000200,00000000,-000.13,0000.20,-000.03,-000.24,0000.06,0000.02,0000.39,0000.41,0000.32,16.4,22.9,03.0,02.0,0671.0,30.9
2021-06-08T09:26:00Z,00000200,00000000,0000.41,0000.48,-000.09,0000.24,-000.00,0000.07,0000.05,0000.06,0000.04,16.4,22.9,03.2,02.1,0671.0,30.9
2021-06-08T09:27:00Z,00000200,00000000,0001.05,0000.16,0000.02,0000.12,-000.07,0000.16,0000.31,0000.22,0000.12,16.5,22.9,03.2,02.2,0671.0,30.9
2021-06-08T09:28:00Z,00000200,00000000,0000.68,0000.52,0000.25,0000.01,-000.01,0000.09,0000.32,0000.20,0000.27,16.5,22.9,03.2,02.1,0671.0,30.9
2021-06-08T09:29:00Z,00000200,00000000,0000.69,0000.14,0000.11,0000.13,-000.02,0000.06,0000.17,0000.33,0000.11,16.5,22.9,03.3,02.2,0671.0,30.9
2021-06-08T09:30:00Z,00000200,00000000,-000.35,0000.01,-000.07,0000.31,-000.27,0000.19,-000.32,-000.17,-000.42,16.5,22.9,03.3,02.2,0671.0,30.9
2021-06-08T09:31:00Z,00000200,00000000,-000.47,0000.55,0000.25,-000.35,-000.12,-000.02,0000.39,0000.22,0000.36,16.5,22.9,03.3,02.2,0671.0,30.9
2021-06-08T09:32:00Z,00000200,00000000,-000.08,0000.13,-000.08,-000.35,0000.05,0000.29,0000.07,0000.46,0000.57,16.5,22.9,03.3,02.2,0671.0,30.9
2021-06-08T09:33:00Z,00000200,00000000,0000.38,0000.19,-000.12,0000.05,-000.13,0000.18,-000.07,0000.04,-000.07,16.5,22.9,03.3,02.2,0671.0,30.9
2021-06-08T09:34:00Z,00000200,00000000,0000.03,0000.03,-000.13,-000.41,0000.05,0000.24,0000.27,-000.28,-000.43,16.5,22.9,03.3,02.2,0671.0,30.9
2021-06-08T09:35:00Z,00000200,00000000,0000.00,0000.19,0000.03,-000.32,-000.10,0000.09,-000.31,-000.08,0000.43,16.5,22.9,03.3,02.2,0671.0,30.9
2021-06-08T09:36:00Z,00000200,00000000,-000.21,0000.31,-000.10,0000.19,-000.03,-000.17,0000.22,0000.31,-000.61,16.6,22.9,03.2,02.2,0670.9,30.9
2021-06-08T09:37:00Z,00000200,00000000,0000.69,0000.09,0000.01,0000.00,0000.09,0000.18,0000.04,0000.06,0000.42,16.6,22.9,03.2,02.1,0670.9,30.9
2021-06-08T09:38:00Z,00000200,00000000,0000.26,0000.10,0000.07,0000.03,-000.03,-000.19,-000.21,0000.01,0000.05,16.6,23.0,03.1,02.1,0670.9,30.9
2021-06-08T09:39:00Z,00000200,00000000,0000.11,0000.27,0000.00,0000.11,-000.05,0000.05,0000.28,-000.43,0000.19,16.6,23.0,03.2,02.1,0670.9,30.9
2021-06-08T09:40:00Z,00000200,00000000,0000.55,0000.21,0000.16,0000.07,0000.03,0000.04,0000.05,0000.10,-000.13,16.6,23.0,03.2,02.1,0670.9,30.9
2021-06-08T09:41:00Z,00000200,00000000,0000.20,0000.24,-000.04,0000.33,-000.06,-000.12,0000.30,0000.46,0000.19,16.6,23.0,03.2,02.1,0670.9,30.9
2021-06-08T09:42:00Z,00000200,00000000,0000.22,0000.06,-000.22,0000.71,-000.08,-000.18,-000.10,0000.15,0000.43,16.6,23.0,03.1,02.1,0670.9,30.9
2021-06-08T09:43:00Z,00000200,00000000,-000.03,0000.29,0000.04,0000.14,-000.12,0000.03,0000.35,0000.10,-000.17,16.6,23.0,03.3,02.2,0670.9,30.9
2021-06-08T09:44:00Z,00000200,00000000,0000.11,0000.28,-000.03,0000.29,-000.09,0000.15,0000.16,0000.09,0000.28,16.6,23.0,03.3,02.2,0670.9,30.9
2021-06-08T09:45:00Z,00000200,00000000,0000.29,0000.17,0000.01,-000.12,0000.07,0000.08,0000.36,0000.28,-000.06,16.6,23.0,03.3,02.2,0670.9,30.9
2021-06-08T09:46:00Z,00000200,00000000,0000.35,-000.15,0000.07,0000.51,0000.03,-000.04,-000.25,0000.16,0000.03,16.6,23.0,03.3,02.2,0670.9,30.9
2021-06-08T09:47:00Z,00000200,00000000,0000.43,0000.51,0000.14,-000.19,-000.13,-000.07,0000.27,-000.15,0000.53,16.7,23.0,03.4,02.3,0670.9,30.9
2021-06-08T09:48:00Z,00000200,00000000,0000.24,0000.05,0000.26,0000.38,-000.12,0000.09,0000.10,0000.67,-000.20,16.7,23.0,03.5,02.3,0670.9,30.9
2021-06-08T09:49:00Z,00000200,00000000,0000.62,0000.34,0000.11,-000.47,-000.13,0000.05,0000.63,-000.04,0000.52,16.7,23.0,03.6,02.4,0670.9,30.9
2021-06-08T09:50:00Z,00000200,00000000,0000.43,0000.01,0000.12,0000.09,0000.27,0000.18,-000.33,0000.25,-000.35,16.7,23.0,03.6,02.4,0670.9,30.9
2021-06-08T09:51:00Z,00000200,00000000,-000.01,0000.14,0000.25,0000.08,0000.13,0000.14,0000.31,0000.12,0000.23,16.7,23.0,03.5,02.4,0670.9,30.9
2021-06-08T09:52:00Z,00000200,00000000,0000.05,-000.03,0000.23,0000.20,0000.13,0000.01,0000.15,0000.09,0000.10,16.7,23.0,03.5,02.4,0670.9,30.9
2021-06-08T09:53:00Z,00000200,00000000,0000.42,0000.12,0000.20,0000.63,0000.28,0000.03,0000.09,-000.10,-000.10,16.7,23.0,03.6,02.4,0670.9,30.9
2021-06-08T09:54:00Z,00000200,00000000,0000.24,0000.14,-000.25,0000.21,0000.13,-000.22,-000.12,0000.09,0000.38,16.7,23.0,03.6,02.4,0670.9,30.9
2021-06-08T09:55:00Z,00000200,00000000,0000.65,0000.13,0000.10,0000.19,-000.14,0000.10,0000.02,0000.17,0000.15,16.7,23.0,03.6,02.4,0670.9,30.9
2021-06-08T09:56:00Z,00000200,00000000,0000.45,0000.50,0000.26,0000.39,0000.08,0000.03,0000.16,0000.09,-000.23,16.7,23.1,03.6,02.4,0670.9,30.9
2021-06-08T09:57:00Z,00000200,40000000,,,,,,,-000.29,-000.69,-000.56,16.8,23.1,04.1,02.8,0671.0,30.9
2021-06-08T09:58:00Z,00000200,60000000,,,,,,,-000.36,0000.16,0000.27,16.5,23.2,03.2,02.1,0669.9,30.9
2021-06-08T09:59:00Z,00000200,20000000,,,,,,,0000.50,0000.18,-000.02,16.5,23.3,03.3,02.2,0669.9,30.9
